Location: Newark
(48.6461°N, 4.3644°W)
Time: 06:27:36
(UTC+00:00)

Transit 4A - Pass Details

Date: 26 January 2020
Orbit: 872 x 973 km, 66.8° (Epoch: 17 February)

Event Time Altitude Azimuth Distance (km) Brightness Sun altitude
Rises 16:57:52 0° 311° (NW) 3,470 11.2 0.2°
Reaches altitude 10° 17:01:29 10° 288° (WNW) 2,528 10.9 -0.3°
Maximum altitude 17:04:30 15° 257° (WSW) 2,219 11.5 -0.7°
Drops below altitude 10° 17:07:32 10° 225° (SW) 2,534 11.8 -1.2°
Sets 17:11:12 0° 203° (SSW) 3,482 11.8 -1.7°
